Location: Andrest
(43.3200°N, 0.0641°E)
Time: 22:15:02
(UTC+00:00)

SL-8 Rocket - Pass Details

Date: 24 April 2021
Orbit: 958 x 989 km, 82.9° (Epoch: 13 May)

Event Time Altitude Azimuth Distance (km) Brightness Sun altitude
Rises 01:35:18 0° 345° (NNW) 3,699 7.7 -29.5°
Reaches altitude 10° 01:37:55 10° 339° (NNW) 2,750 6.8 -29.3°
Enters shadow 01:42:59 41° 291° (WNW) 1,404 4.7 -28.9°
